Hourly Weather Roundup
Issued by NWS Central Illinois

Home | Current Version | Previous Version | Text Only | Print | Product List | Glossary On
Versions: 1 2 3 4 5 6 7 8 9 10 11 12 13 14 15 16 17 18 19 20 21 22 23 24 25 26 27 28 29 30 31 32 33 34 35 36 37 38 39 40 41 42 43 44 45 46 47 48 49 50
844
NZUS43 KILX 250910
HWRILX

AREA WEATHER ROUNDUP
NATIONAL WEATHER SERVICE, LINCOLN IL
300 AM CST SAT FEB 25 2017


CITY           SKY/WX    TMP DP  RH WIND       PRES   REMARKS
BLOOMINGTON    LGT SNOW  29  27  92 W22G30    29.71R FOG     WCI  15
CHAMPAIGN      FRZ RAIN  31  28  89 W28G38    29.71R FOG     WCI  17
DECATUR        CLOUDY    29  24  82 W22G38    29.77R WCI  15
EFFINGHAM      CLOUDY    33  26  75 W21G30    29.81R WCI  20
FLORA          CLOUDY    35  23  62 W25G36    29.83R WCI  22
GALESBURG      LGT SNOW  23  21  92 NW16G26   29.79R WCI  10
JACKSONVILLE   CLOUDY    27  19  73 W20G32    29.85R WCI  13
LACON          CLOUDY    27  22  83 NW21G28   29.73R WCI  13
LAWRENCEVILLE  CLOUDY    35  24  64 W21G29    29.80R WCI  24
LITCHFIELD     CLOUDY    29  22  75 W24G32    29.85R WCI  15
$$


CITY           SKY/WX    TMP DP  RH WIND       PRES   REMARKS
LINCOLN        CLOUDY    29  23  77 W15G29    29.78R WCI  18
MACOMB         CLOUDY    25  20  83 NW30      29.85R WCI   8
MATTOON        CLOUDY    31  27  85 W18G37    29.75R WCI  19
MT CARMEL AP   CLOUDY    34  24  66 W24G30    29.80R WCI  22
OLNEY-NOBLE AP CLOUDY    32  27  80 W23G35    29.82R WCI  19
PARIS          CLOUDY    32  29  87 W23G37    29.74R WCI  19
PEORIA         CLOUDY    26  20  77 W20G29    29.77R WCI  12
PONTIAC        MIX PCPN  31  29  92 W24G30    29.69R WCI  18
RANTOUL        LGT RAIN  33  32  95 W21G29    29.68R WCI  22
SPRINGFIELD    CLOUDY    29  22  75 W20G30    29.81R WCI  16
TAYLORVILLE    CLOUDY    29  22  77 W21G37    29.81R WCI  15
$$

...REGIONAL REPORTS...


CITY           SKY/WX    TMP DP  RH WIND       PRES   REMARKS
CHICAGO O`HARE FLURRIES  30  25  81 W12       29.61R WCI  20
KANKAKEE       CLOUDY    32  28  86 W9G16     29.65R WCI  24
MOLINE         FLURRIES  24  17  74 NW21G30   29.79R WCI   9
MOUNT STERLING CLOUDY    26  19  77 NW25G35   29.85S WCI  10
MOUNT VERNON   CLOUDY    33  21  61 W18G26    29.86R WCI  22
PITTSFIELD     CLOUDY    28  22  78 W18G26    29.89R WCI  15
QUINCY         CLOUDY    26  18  71 NW23      29.88R WCI  11
ROCKFORD       FLURRIES  23  18  81 NW16      29.69R WCI  10
$$


CITY           SKY/WX    TMP DP  RH WIND       PRES   REMARKS
BURLINGTON     FLURRIES  24  18  77 NW15G22   29.85R WCI  11
CEDAR RAPIDS   MOCLDY    20  14  77 NW20      29.83R WCI   4
DES MOINES     MOCLDY    20  13  74 NW20      29.98R WCI   4
KIRKSVILLE     PTCLDY    22  15  75 NW13G25   29.95R WCI  10
OTTUMWA        CLEAR     20  12  71 NW17      29.92R WCI   5
ST LOUIS       FLURRIES  31  19  61 W24G40    29.90R WCI  17
$$


CITY           SKY/WX    TMP DP  RH WIND       PRES   REMARKS
TERRE HAUTE    CLOUDY    35  25  66 W18G29    29.73R WCI  24
EVANSVILLE     CLOUDY    38  25  59 W20G30    29.82R WCI  28
INDIANAPOLIS   CLOUDY    38  27  64 W26G32    29.67R WCI  26
LAFAYETTE      FLURRIES  34  31  88 W13G23    29.63S WCI  25
MADISON        LGT SNOW  19  15  84 NW13G28   29.66R FOG     WCI   6
MILWAUKEE      LGT SNOW  25  19  78 NW13      29.60R WCI  14
$$






USA.gov is the U.S. government's official web portal to all federal, state and local government web resources and services.